Zurück zum Katalog

SKYNET 4E

AktivMilitärGEO
NORAD 25639·PAYLOAD·🇬🇧 United Kingdom

Gestartet Feb 26, 1999 von Guiana Space Centre

Loading…

TLE

AktuellSource: Space-Track

Epoche: Sep 14, 2026, 13:44 UTC

1 25639U 99009B   26257.57286102 -.00000247  00000-0  00000-0 0  9999
2 25639  12.1239   8.5932 0003444 233.5328 126.1149  0.99031082 52039

Verfolge SKYNET 4E in Echtzeit mit AllMySat

Download on the App Store